sat.trackr.live / text

‹ back to catalog

R5-S4

NORAD 60206 · 2024-125D

PAYLOAD ACTIVE UNKNOWN

§ Identity

Operator
Country
US
Launch date
2024-07-04
Launch site
AFWTR
Launch vehicle
Mass (kg)
RCS (m²)

External: N2YO · Heavens-Above · Gunter

§ Orbital elements

Epoch: 2026-05-25T01:19:32.856960Z

Period
93.36 min
Inclination
97.2428°
Eccentricity
0.0015090
Mean motion
15.42354514 rev/d
Perigee alt
428.9 km
Apogee alt
449.4 km
Semi-major
6,817.3 km
B*
3.1501e-4
RAAN
356.4270°
Arg perigee
318.9860°
Mean anomaly
41.0252°
Rev number
10,556

§ Raw data

R5-S41 60206U 24125D   26145.05524140  .00013562  00000+0  31501-3 0  99962 60206  97.2428 356.4270 0015090 318.9860  41.0252 15.42354514105560

JSON: /api/v1/satellites/60206 · /tle

For live sub-satellite position, see the globe view (requires WebGL).

§ Visibility from observer

Set your observer location to see the next 7 days of passes ≥ 10°. The values pass through the URL so the page stays shareable.

No JS? Fill the form by hand. The geolocation button needs JavaScript.

§ Radio — SatNOGS DB

ModeDescriptionDownlinkUplink
FM Mode L - Transmitter 1.621 GHz

1 transmitter · refreshed weekly from db.satnogs.org